Location: Newark
(42.8481°N, 0.4872°E)
Time: 16:33:05
(UTC+00:00)

Vanguard 1 - Pass Details

Date: 03 November 2020
Orbit: 650 x 3833 km, 34.2° (Epoch: 28 November)

Event Time Altitude Azimuth Distance (km) Brightness Sun altitude
Rises 16:04:01 0° 279° (W) 7,906 15.6 6.4°
Reaches altitude 10° 16:09:36 10° 275° (W) 6,940 15.5 5.5°
Maximum altitude 16:31:10 50° 209° (SSW) 3,888 13.6 1.9°
Drops below altitude 10° 16:46:07 10° 140° (SE) 4,967 13.5 -0.6°
Sets 16:49:22 0° 135° (SE) 5,612 13.7 -1.2°
